"read_dt","SO2 (ppb)","flags","PMT voltage (V)","lamp voltage (V)","lamp intensity (Hz)","internal temp (C)","react chamber temp (C)","sample flow (l/min)","pres (mmHg)","SO2 bkg (ppb)","SO2 coefficient"
2014-09-07 00:00:00,1834E-3,5C000000,-0724,0828,12278,026.2,045.4,0.480,735.7,01.18,0.508
2014-09-07 00:01:00,1804E-3,5C000000,-0724,0827,12219,026.2,045.4,0.479,735.8,01.18,0.508
2014-09-07 00:02:00,1724E-3,5C000000,-0724,0827,12125,026.3,045.4,0.480,735.8,01.18,0.508
2014-09-07 00:03:00,1726E-3,5C000000,-0724,0827,12233,026.3,045.4,0.479,735.9,01.18,0.508
2014-09-07 00:04:00,1664E-3,5C000000,-0724,0826,12361,026.3,045.5,0.480,735.8,01.18,0.508
2014-09-07 00:05:00,1843E-3,5C000000,-0724,0827,12248,026.3,045.4,0.479,735.8,01.18,0.508
2014-09-07 00:06:00,1782E-3,5C000000,-0724,0827,12216,026.4,045.4,0.480,735.6,01.18,0.508
2014-09-07 00:07:00,1767E-3,5C000000,-0724,0828,12297,026.4,045.4,0.479,735.7,01.18,0.508
2014-09-07 00:08:00,1849E-3,5C000000,-0724,0827,12255,026.4,045.4,0.479,735.7,01.18,0.508
2014-09-07 00:09:00,1800E-3,5C000000,-0724,0826,12040,026.4,045.4,0.479,735.8,01.18,0.508
2014-09-07 00:10:00,1821E-3,5C000000,-0724,0826,12154,026.4,045.4,0.480,735.9,01.18,0.508
2014-09-07 00:11:00,1696E-3,5C000000,-0724,0828,12209,026.4,045.4,0.479,735.9,01.18,0.508
2014-09-07 00:12:00,1770E-3,5C000000,-0724,0828,12220,026.4,045.4,0.479,735.8,01.18,0.508
2014-09-07 00:13:00,1614E-3,5C000000,-0724,0828,12266,026.4,045.4,0.479,735.8,01.18,0.508
2014-09-07 00:14:00,1864E-3,5C000000,-0724,0826,12357,026.4,045.5,0.479,735.8,01.18,0.508
2014-09-07 00:15:00,1745E-3,5C000000,-0724,0827,12053,026.4,045.4,0.479,735.9,01.18,0.508
2014-09-07 00:16:00,1951E-3,5C000000,-0724,0828,12165,026.4,045.4,0.479,735.9,01.18,0.508
2014-09-07 00:17:00,1677E-3,5C000000,-0724,0828,12253,026.4,045.4,0.479,735.9,01.18,0.508
2014-09-07 00:18:00,1646E-3,5C000000,-0724,0827,12356,026.5,045.4,0.479,736.0,01.18,0.508
2014-09-07 00:19:00,1735E-3,5C000000,-0724,0828,12405,026.4,045.4,0.479,736.0,01.18,0.508
2014-09-07 00:20:00,1709E-3,5C000000,-0724,0828,12225,026.4,045.4,0.479,735.9,01.18,0.508
2014-09-07 00:21:00,1717E-3,5C000000,-0724,0826,12141,026.4,045.4,0.479,736.0,01.18,0.508
2014-09-07 00:22:00,1725E-3,5C000000,-0724,0826,12052,026.4,045.4,0.479,736.0,01.18,0.508
2014-09-07 00:23:00,1837E-3,5C000000,-0724,0828,12250,026.4,045.4,0.479,736.0,01.18,0.508
2014-09-07 00:24:00,1724E-3,5C000000,-0724,0827,12229,026.4,045.4,0.479,736.0,01.18,0.508
2014-09-07 00:25:00,1741E-3,5C000000,-0724,0827,12178,026.4,045.4,0.479,736.0,01.18,0.508
2014-09-07 00:26:00,1756E-3,5C000000,-0724,0828,12322,026.4,045.4,0.479,735.9,01.18,0.508
2014-09-07 00:27:00,1641E-3,5C000000,-0724,0827,12335,026.4,045.4,0.479,736.0,01.18,0.508
2014-09-07 00:28:00,1873E-3,5C000000,-0724,0827,12316,026.4,045.4,0.480,736.1,01.18,0.508
2014-09-07 00:29:00,1758E-3,5C000000,-0724,0826,12147,026.4,045.4,0.479,736.1,01.18,0.508
2014-09-07 00:30:00,1749E-3,5C000000,-0724,0826,12234,026.3,045.4,0.479,736.1,01.18,0.508
2014-09-07 00:31:00,1713E-3,5C000000,-0724,0826,12168,026.4,045.4,0.479,736.1,01.18,0.508
2014-09-07 00:32:00,1803E-3,5C000000,-0724,0827,12300,026.4,045.4,0.479,736.1,01.18,0.508
2014-09-07 00:33:00,1648E-3,5C000000,-0724,0827,12242,026.4,045.4,0.479,736.0,01.18,0.508
2014-09-07 00:34:00,1826E-3,5C000000,-0724,0827,12405,026.4,045.4,0.479,736.1,01.18,0.508
2014-09-07 00:35:00,1706E-3,5C000000,-0724,0827,12182,026.4,045.4,0.479,736.1,01.18,0.508
2014-09-07 00:36:00,1801E-3,5C000000,-0724,0827,12094,026.4,045.4,0.479,736.0,01.18,0.508
2014-09-07 00:37:00,1771E-3,5C000000,-0724,0827,12351,026.4,045.4,0.479,736.0,01.18,0.508
2014-09-07 00:38:00,1961E-3,5C000000,-0724,0826,12128,026.5,045.4,0.479,736.0,01.18,0.508
2014-09-07 00:39:00,1853E-3,5C000000,-0724,0828,12257,026.4,045.4,0.479,735.9,01.18,0.508
2014-09-07 00:40:00,1828E-3,5C000000,-0724,0828,12191,026.4,045.4,0.480,736.2,01.18,0.508
2014-09-07 00:41:00,1706E-3,5C000000,-0724,0826,12255,026.4,045.4,0.479,736.0,01.18,0.508
2014-09-07 00:42:00,1860E-3,5C000000,-0724,0827,12268,026.4,045.4,0.479,736.1,01.18,0.508
2014-09-07 00:43:00,1726E-3,5C000000,-0724,0826,12239,026.4,045.4,0.479,736.2,01.18,0.508
2014-09-07 00:44:00,1809E-3,5C000000,-0724,0828,12023,026.4,045.4,0.479,736.1,01.18,0.508
2014-09-07 00:45:00,1797E-3,5C000000,-0724,0827,12009,026.4,045.4,0.479,736.1,01.18,0.508
2014-09-07 00:46:00,1726E-3,5C000000,-0724,0827,12247,026.5,045.5,0.479,736.0,01.18,0.508
2014-09-07 00:47:00,1727E-3,5C000000,-0724,0828,12079,026.4,045.4,0.479,736.1,01.18,0.508
2014-09-07 00:48:00,1768E-3,5C000000,-0724,0827,12126,026.5,045.4,0.479,736.2,01.18,0.508
2014-09-07 00:49:00,1761E-3,5C000000,-0724,0828,12332,026.4,045.4,0.479,736.2,01.18,0.508
2014-09-07 00:50:00,1828E-3,5C000000,-0724,0827,12283,026.5,045.4,0.479,736.2,01.18,0.508
2014-09-07 00:51:00,1711E-3,5C000000,-0724,0827,12179,026.4,045.4,0.479,736.3,01.18,0.508
2014-09-07 00:52:00,1780E-3,5C000000,-0724,0827,12280,026.4,045.4,0.479,736.2,01.18,0.508
2014-09-07 00:53:00,1658E-3,5C000000,-0724,0827,12188,026.4,045.4,0.479,736.3,01.18,0.508
2014-09-07 00:54:00,1692E-3,5C000000,-0724,0826,12288,026.4,045.5,0.479,736.3,01.18,0.508
2014-09-07 00:55:00,1818E-3,5C000000,-0724,0826,12131,026.4,045.5,0.479,736.3,01.18,0.508
2014-09-07 00:56:00,1794E-3,5C000000,-0724,0827,12115,026.4,045.4,0.479,736.3,01.18,0.508
2014-09-07 00:57:00,1856E-3,5C000000,-0724,0826,12176,026.4,045.4,0.480,736.4,01.18,0.508
2014-09-07 00:58:00,1753E-3,5C000000,-0724,0826,12041,026.5,045.4,0.479,736.3,01.18,0.508
2014-09-07 00:59:00,1687E-3,5C000000,-0724,0828,12293,026.4,045.4,0.479,736.3,01.18,0.508
2014-09-07 01:00:00,1794E-3,5C000000,-0724,0827,12233,026.4,045.4,0.479,736.4,01.18,0.508
2014-09-07 01:01:00,2002E-3,5C000000,-0724,0827,12137,026.4,045.4,0.479,736.5,01.18,0.508
2014-09-07 01:02:00,1744E-3,5C000000,-0724,0828,12344,026.4,045.4,0.480,736.3,01.18,0.508
2014-09-07 01:03:00,1918E-3,5C000000,-0724,0827,12151,026.4,045.4,0.479,736.5,01.18,0.508
2014-09-07 01:04:00,1824E-3,5C000000,-0724,0827,12072,026.4,045.4,0.479,736.2,01.18,0.508
2014-09-07 01:05:00,1916E-3,5C000000,-0724,0827,12253,026.5,045.4,0.480,736.6,01.18,0.508
2014-09-07 01:06:00,1853E-3,5C000000,-0724,0828,12247,026.5,045.4,0.479,736.5,01.18,0.508
2014-09-07 01:07:00,1750E-3,5C000000,-0724,0826,12304,026.4,045.4,0.479,736.5,01.18,0.508
2014-09-07 01:08:00,1821E-3,5C000000,-0724,0828,12268,026.5,045.4,0.480,736.4,01.18,0.508
2014-09-07 01:09:00,1679E-3,5C000000,-0724,0827,12176,026.5,045.4,0.479,736.6,01.18,0.508
2014-09-07 01:10:00,1793E-3,5C000000,-0724,0828,12195,026.5,045.4,0.479,736.6,01.18,0.508
2014-09-07 01:11:00,1709E-3,5C000000,-0724,0827,12365,026.5,045.4,0.479,736.6,01.18,0.508
2014-09-07 01:12:00,1758E-3,5C000000,-0724,0827,12274,026.5,045.4,0.479,736.7,01.18,0.508
2014-09-07 01:13:00,1783E-3,5C000000,-0724,0826,12263,026.5,045.4,0.480,736.6,01.18,0.508
2014-09-07 01:14:00,1832E-3,5C000000,-0724,0827,12159,026.5,045.4,0.479,736.6,01.18,0.508
2014-09-07 01:15:00,1827E-3,5C000000,-0724,0826,12142,026.5,045.4,0.479,736.5,01.18,0.508
2014-09-07 01:16:00,1786E-3,5C000000,-0724,0827,12131,026.5,045.4,0.480,736.7,01.18,0.508
2014-09-07 01:17:00,1609E-3,5C000000,-0724,0827,12056,026.5,045.4,0.479,736.7,01.18,0.508
2014-09-07 01:18:00,1709E-3,5C000000,-0724,0827,12182,026.5,045.4,0.479,736.6,01.18,0.508
2014-09-07 01:19:00,1695E-3,5C000000,-0724,0828,12217,026.5,045.4,0.479,736.7,01.18,0.508
2014-09-07 01:20:00,1784E-3,5C000000,-0724,0828,12240,026.5,045.4,0.479,736.6,01.18,0.508
2014-09-07 01:21:00,1721E-3,5C000000,-0724,0828,12228,026.5,045.4,0.480,736.7,01.18,0.508
2014-09-07 01:22:00,1712E-3,5C000000,-0724,0827,12284,026.5,045.5,0.479,736.6,01.18,0.508
2014-09-07 01:23:00,1808E-3,5C000000,-0724,0827,12317,026.5,045.4,0.479,736.6,01.18,0.508
2014-09-07 01:24:00,1888E-3,5C000000,-0724,0827,12115,026.5,045.4,0.479,736.7,01.18,0.508
2014-09-07 01:25:00,1884E-3,5C000000,-0724,0827,12100,026.4,045.4,0.479,736.7,01.18,0.508
2014-09-07 01:26:00,1837E-3,5C000000,-0724,0827,12319,026.5,045.4,0.479,736.7,01.18,0.508
2014-09-07 01:27:00,1693E-3,5C000000,-0724,0828,12399,026.5,045.4,0.479,736.6,01.18,0.508
2014-09-07 01:28:00,1696E-3,5C000000,-0724,0827,12270,026.4,045.4,0.479,736.7,01.18,0.508
2014-09-07 01:29:00,1718E-3,5C000000,-0724,0828,11943,026.4,045.4,0.480,736.6,01.18,0.508
2014-09-07 01:30:00,1790E-3,5C000000,-0724,0827,12376,026.4,045.4,0.479,736.6,01.18,0.508
2014-09-07 01:31:00,1826E-3,5C000000,-0724,0826,12065,026.4,045.4,0.479,736.7,01.18,0.508
2014-09-07 01:32:00,1819E-3,5C000000,-0724,0827,12381,026.4,045.4,0.480,736.7,01.18,0.508
2014-09-07 01:33:00,1774E-3,5C000000,-0724,0827,12242,026.4,045.4,0.479,736.7,01.18,0.508
2014-09-07 01:34:00,1800E-3,5C000000,-0724,0826,12159,026.4,045.4,0.479,736.6,01.18,0.508
2014-09-07 01:35:00,1714E-3,5C000000,-0724,0826,12138,026.4,045.4,0.480,736.7,01.18,0.508
2014-09-07 01:36:00,1707E-3,5C000000,-0724,0827,12287,026.4,045.4,0.480,736.8,01.18,0.508
2014-09-07 01:37:00,1708E-3,5C000000,-0724,0827,12429,026.4,045.4,0.479,736.7,01.18,0.508
2014-09-07 01:38:00,1691E-3,5C000000,-0724,0827,12328,026.4,045.4,0.480,736.6,01.18,0.508
2014-09-07 01:39:00,1761E-3,5C000000,-0724,0827,12070,026.4,045.4,0.480,736.7,01.18,0.508
2014-09-07 01:40:00,1779E-3,5C000000,-0724,0827,12262,026.4,045.4,0.479,736.7,01.18,0.508
2014-09-07 01:41:00,1766E-3,5C000000,-0724,0828,12265,026.4,045.4,0.480,736.8,01.18,0.508
2014-09-07 01:42:00,1680E-3,5C000000,-0724,0827,12185,026.4,045.4,0.479,736.7,01.18,0.508
2014-09-07 01:43:00,1839E-3,5C000000,-0724,0827,12184,026.4,045.4,0.479,736.8,01.18,0.508
2014-09-07 01:44:00,1772E-3,5C000000,-0724,0827,12267,026.4,045.5,0.480,736.8,01.18,0.508
2014-09-07 01:45:00,1774E-3,5C000000,-0724,0827,12376,026.4,045.5,0.479,736.8,01.18,0.508
2014-09-07 01:46:00,1764E-3,5C000000,-0724,0827,12239,026.5,045.4,0.479,736.8,01.18,0.508
2014-09-07 01:47:00,1689E-3,5C000000,-0724,0827,12222,026.4,045.4,0.480,736.9,01.18,0.508
2014-09-07 01:48:00,1846E-3,5C000000,-0724,0827,12171,026.5,045.4,0.479,736.8,01.18,0.508
2014-09-07 01:49:00,1812E-3,5C000000,-0724,0827,12115,026.5,045.4,0.479,736.7,01.18,0.508
2014-09-07 01:50:00,1749E-3,5C000000,-0724,0827,12318,026.5,045.4,0.480,736.7,01.18,0.508
2014-09-07 01:51:00,1585E-3,5C000000,-0724,0828,12195,026.5,045.4,0.479,736.7,01.18,0.508
2014-09-07 01:52:00,1624E-3,5C000000,-0724,0827,12121,026.5,045.4,0.480,736.7,01.18,0.508
2014-09-07 01:53:00,1738E-3,5C000000,-0724,0827,12252,026.5,045.4,0.480,736.8,01.18,0.508
2014-09-07 01:54:00,1829E-3,5C000000,-0724,0826,12281,026.5,045.4,0.479,736.8,01.18,0.508
2014-09-07 01:55:00,1666E-3,5C000000,-0724,0827,11984,026.5,045.5,0.480,736.9,01.18,0.508
2014-09-07 01:56:00,1731E-3,5C000000,-0724,0827,12207,026.5,045.5,0.479,736.8,01.18,0.508
2014-09-07 01:57:00,1670E-3,5C000000,-0724,0827,12080,026.4,045.4,0.479,736.7,01.18,0.508
2014-09-07 01:58:00,1724E-3,5C000000,-0724,0826,12241,026.4,045.4,0.480,736.8,01.18,0.508
2014-09-07 01:59:00,1844E-3,5C000000,-0724,0827,12337,026.5,045.4,0.479,736.9,01.18,0.508
2014-09-07 02:00:00,1681E-3,5C000000,-0724,0827,12273,026.5,045.4,0.479,736.8,01.18,0.508
2014-09-07 02:01:00,1866E-3,5C000000,-0724,0826,12294,026.5,045.4,0.480,736.9,01.18,0.508
2014-09-07 02:02:00,1840E-3,5C000000,-0724,0827,12019,026.5,045.4,0.479,737.0,01.18,0.508
2014-09-07 02:03:00,1597E-3,5C000000,-0724,0827,12370,026.5,045.4,0.479,736.9,01.18,0.508
2014-09-07 02:04:00,1811E-3,5C000000,-0724,0827,12185,026.5,045.4,0.480,737.0,01.18,0.508
2014-09-07 02:05:00,1720E-3,5C000000,-0724,0826,12164,026.5,045.4,0.479,736.9,01.18,0.508
2014-09-07 02:06:00,1745E-3,5C000000,-0724,0827,12313,026.5,045.5,0.479,736.9,01.18,0.508
2014-09-07 02:07:00,1681E-3,5C000000,-0724,0827,12142,026.5,045.4,0.480,736.9,01.18,0.508
2014-09-07 02:08:00,1727E-3,5C000000,-0724,0828,12306,026.5,045.4,0.479,737.0,01.18,0.508
2014-09-07 02:09:00,1821E-3,5C000000,-0724,0827,12306,026.4,045.4,0.479,737.0,01.18,0.508
2014-09-07 02:10:00,1767E-3,5C000000,-0724,0827,12036,026.4,045.4,0.480,737.1,01.18,0.508
2014-09-07 02:11:00,1821E-3,5C000000,-0724,0827,12065,026.4,045.4,0.480,737.0,01.18,0.508
2014-09-07 02:12:00,1820E-3,5C000000,-0724,0827,12278,026.4,045.4,0.479,737.0,01.18,0.508
2014-09-07 02:13:00,1779E-3,5C000000,-0724,0826,12296,026.4,045.4,0.479,737.1,01.18,0.508
2014-09-07 02:14:00,1753E-3,5C000000,-0724,0827,12304,026.4,045.4,0.480,737.0,01.18,0.508
2014-09-07 02:15:00,1784E-3,5C000000,-0724,0827,12069,026.4,045.4,0.479,737.1,01.18,0.508
2014-09-07 02:16:00,1746E-3,5C000000,-0724,0827,12212,026.4,045.4,0.479,737.1,01.18,0.508
2014-09-07 02:17:00,1670E-3,5C000000,-0724,0826,12134,026.4,045.4,0.480,737.1,01.18,0.508
2014-09-07 02:18:00,1754E-3,5C000000,-0724,0827,12047,026.4,045.4,0.479,737.1,01.18,0.508
2014-09-07 02:19:00,1886E-3,5C000000,-0724,0826,12139,026.4,045.4,0.479,737.0,01.18,0.508
2014-09-07 02:20:00,1795E-3,5C000000,-0724,0827,12235,026.4,045.4,0.480,737.1,01.18,0.508
2014-09-07 02:21:00,1940E-3,5C000000,-0724,0827,12247,026.4,045.4,0.479,737.1,01.18,0.508
2014-09-07 02:22:00,1651E-3,5C000000,-0724,0828,12155,026.4,045.4,0.479,737.1,01.18,0.508
2014-09-07 02:23:00,1651E-3,5C000000,-0724,0828,12094,026.4,045.4,0.480,737.1,01.18,0.508
2014-09-07 02:24:00,1682E-3,5C000000,-0724,0827,12238,026.4,045.4,0.479,737.1,01.18,0.508
2014-09-07 02:25:00,1673E-3,5C000000,-0724,0826,12129,026.4,045.4,0.479,737.0,01.18,0.508
2014-09-07 02:26:00,1692E-3,5C000000,-0724,0827,12287,026.4,045.4,0.480,737.0,01.18,0.508
2014-09-07 02:27:00,1775E-3,5C000000,-0724,0828,12370,026.4,045.4,0.480,737.0,01.18,0.508
2014-09-07 02:28:00,1824E-3,5C000000,-0724,0826,12356,026.4,045.4,0.479,737.0,01.18,0.508
2014-09-07 02:29:00,1782E-3,5C000000,-0724,0827,12296,026.4,045.4,0.480,737.0,01.18,0.508
2014-09-07 02:30:00,1870E-3,5C000000,-0724,0827,12293,026.4,045.4,0.480,737.0,01.18,0.508
2014-09-07 02:31:00,1662E-3,5C000000,-0724,0826,11991,026.4,045.4,0.479,736.9,01.18,0.508
2014-09-07 02:32:00,1753E-3,5C000000,-0724,0827,12286,026.4,045.4,0.479,736.9,01.18,0.508
2014-09-07 02:33:00,1679E-3,5C000000,-0724,0827,12177,026.4,045.4,0.480,736.8,01.18,0.508
2014-09-07 02:34:00,1697E-3,5C000000,-0724,0827,12322,026.4,045.4,0.479,736.8,01.18,0.508
2014-09-07 02:35:00,1748E-3,5C000000,-0724,0827,12180,026.4,045.4,0.479,736.9,01.18,0.508
2014-09-07 02:36:00,1656E-3,5C000000,-0724,0827,12073,026.4,045.4,0.480,737.0,01.18,0.508
2014-09-07 02:37:00,1870E-3,5C000000,-0724,0827,12253,026.4,045.4,0.479,736.9,01.18,0.508
2014-09-07 02:38:00,1727E-3,5C000000,-0724,0828,12218,026.5,045.4,0.479,737.0,01.18,0.508
2014-09-07 02:39:00,1856E-3,5C000000,-0724,0827,12209,026.4,045.4,0.480,736.9,01.18,0.508
2014-09-07 02:40:00,1763E-3,5C000000,-0724,0827,12203,026.4,045.4,0.479,736.9,01.18,0.508
2014-09-07 02:41:00,1668E-3,5C000000,-0724,0826,12205,026.4,045.4,0.479,736.8,01.18,0.508
2014-09-07 02:42:00,1836E-3,5C000000,-0724,0827,12270,026.4,045.4,0.480,736.9,01.18,0.508
2014-09-07 02:43:00,1726E-3,5C000000,-0724,0826,12157,026.5,045.4,0.479,737.0,01.18,0.508
2014-09-07 02:44:00,1675E-3,5C000000,-0724,0828,12325,026.4,045.4,0.479,736.9,01.18,0.508
2014-09-07 02:45:00,1724E-3,5C000000,-0724,0827,12370,026.5,045.4,0.480,736.9,01.18,0.508
2014-09-07 02:46:00,1793E-3,5C000000,-0724,0828,12053,026.4,045.4,0.479,736.9,01.18,0.508
2014-09-07 02:47:00,1735E-3,5C000000,-0724,0826,12157,026.4,045.4,0.479,737.0,01.18,0.508
2014-09-07 02:48:00,1780E-3,5C000000,-0724,0827,12304,026.4,045.4,0.480,737.0,01.18,0.508
2014-09-07 02:49:00,1840E-3,5C000000,-0724,0828,12276,026.4,045.4,0.480,736.9,01.18,0.508
2014-09-07 02:50:00,1790E-3,5C000000,-0724,0827,12195,026.4,045.4,0.479,737.0,01.18,0.508
2014-09-07 02:51:00,1630E-3,5C000000,-0724,0827,12249,026.4,045.4,0.479,736.9,01.18,0.508
2014-09-07 02:52:00,1830E-3,5C000000,-0724,0827,12263,026.4,045.4,0.480,737.0,01.18,0.508
2014-09-07 02:53:00,1897E-3,5C000000,-0724,0827,12374,026.4,045.4,0.479,736.9,01.18,0.508
2014-09-07 02:54:00,1752E-3,5C000000,-0724,0828,12192,026.4,045.4,0.479,737.1,01.18,0.508
2014-09-07 02:55:00,1841E-3,5C000000,-0724,0827,12272,026.4,045.5,0.480,737.1,01.18,0.508
2014-09-07 02:56:00,1654E-3,5C000000,-0724,0828,12294,026.4,045.4,0.479,737.1,01.18,0.508
2014-09-07 02:57:00,1719E-3,5C000000,-0724,0828,12301,026.4,045.4,0.479,737.0,01.18,0.508
2014-09-07 02:58:00,1748E-3,5C000000,-0724,0826,12190,026.4,045.4,0.480,737.1,01.18,0.508
2014-09-07 02:59:00,1602E-3,5C000000,-0724,0826,12244,026.4,045.4,0.480,737.0,01.18,0.508
2014-09-07 03:00:00,1765E-3,5C000000,-0724,0827,12139,026.4,045.4,0.479,737.1,01.18,0.508
2014-09-07 03:01:00,1797E-3,5C000000,-0724,0827,12211,026.4,045.4,0.479,737.2,01.18,0.508
2014-09-07 03:02:00,1758E-3,5C000000,-0724,0827,12180,026.4,045.5,0.480,737.2,01.18,0.508
2014-09-07 03:03:00,1736E-3,5C000000,-0724,0828,12453,026.4,045.4,0.479,737.1,01.18,0.508
2014-09-07 03:04:00,1830E-3,5C000000,-0724,0827,12085,026.4,045.4,0.479,737.1,01.18,0.508
2014-09-07 03:05:00,1725E-3,5C000000,-0724,0827,12201,026.4,045.4,0.480,737.1,01.18,0.508
2014-09-07 03:06:00,1830E-3,5C000000,-0724,0827,12225,026.4,045.4,0.480,737.2,01.18,0.508
2014-09-07 03:07:00,1713E-3,5C000000,-0724,0827,12104,026.4,045.4,0.479,737.1,01.18,0.508
2014-09-07 03:08:00,1697E-3,5C000000,-0724,0828,12316,026.4,045.4,0.480,737.2,01.18,0.508
2014-09-07 03:09:00,1847E-3,5C000000,-0724,0826,12071,026.4,045.4,0.480,737.0,01.18,0.508
2014-09-07 03:10:00,1678E-3,5C000000,-0724,0827,12114,026.4,045.5,0.479,736.9,01.18,0.508
2014-09-07 03:11:00,1822E-3,5C000000,-0724,0826,12139,026.4,045.4,0.479,737.1,01.18,0.508
2014-09-07 03:12:00,1900E-3,5C000000,-0724,0827,12181,026.3,045.4,0.480,737.2,01.18,0.508
2014-09-07 03:13:00,1738E-3,5C000000,-0724,0827,12257,026.3,045.4,0.480,737.2,01.18,0.508
2014-09-07 03:14:00,1706E-3,5C000000,-0724,0828,12271,026.3,045.4,0.479,737.3,01.18,0.508
2014-09-07 03:15:00,1807E-3,5C000000,-0724,0828,12337,026.3,045.4,0.480,737.3,01.18,0.508
2014-09-07 03:16:00,1714E-3,5C000000,-0724,0827,12267,026.3,045.4,0.480,737.2,01.18,0.508
2014-09-07 03:17:00,1865E-3,5C000000,-0724,0828,12426,026.4,045.4,0.479,737.1,01.18,0.508
2014-09-07 03:18:00,1673E-3,5C000000,-0724,0827,12248,026.4,045.4,0.479,737.1,01.18,0.508
2014-09-07 03:19:00,1762E-3,5C000000,-0724,0828,12244,026.4,045.4,0.480,737.1,01.18,0.508
2014-09-07 03:20:00,1853E-3,5C000000,-0724,0826,12303,026.4,045.4,0.480,737.2,01.18,0.508
2014-09-07 03:21:00,1771E-3,5C000000,-0724,0828,12286,026.4,045.4,0.479,737.3,01.18,0.508
2014-09-07 03:22:00,1844E-3,5C000000,-0724,0827,12225,026.4,045.4,0.480,737.1,01.18,0.508
2014-09-07 03:23:00,1808E-3,5C000000,-0724,0827,12221,026.5,045.4,0.480,737.3,01.18,0.508
2014-09-07 03:24:00,1738E-3,5C000000,-0724,0828,12329,026.4,045.4,0.479,737.1,01.18,0.508
2014-09-07 03:25:00,1887E-3,5C000000,-0724,0827,12217,026.4,045.4,0.479,737.3,01.18,0.508
2014-09-07 03:26:00,1834E-3,5C000000,-0724,0828,12281,026.4,045.4,0.480,737.4,01.18,0.508
2014-09-07 03:27:00,1710E-3,5C000000,-0724,0826,12198,026.4,045.4,0.480,737.2,01.18,0.508
2014-09-07 03:28:00,1659E-3,5C000000,-0724,0827,12201,026.4,045.4,0.479,737.3,01.18,0.508
2014-09-07 03:29:00,1798E-3,5C000000,-0724,0827,12028,026.4,045.4,0.480,737.4,01.18,0.508
2014-09-07 03:30:00,1752E-3,5C000000,-0724,0827,11943,026.4,045.4,0.480,737.3,01.18,0.508
2014-09-07 03:31:00,1769E-3,5C000000,-0724,0828,12457,026.4,045.4,0.479,737.5,01.18,0.508
2014-09-07 03:32:00,1782E-3,5C000000,-0724,0828,12113,026.4,045.4,0.479,737.4,01.18,0.508
2014-09-07 03:33:00,1805E-3,5C000000,-0724,0827,12207,026.4,045.4,0.480,737.3,01.18,0.508
2014-09-07 03:34:00,1829E-3,5C000000,-0724,0827,12316,026.3,045.4,0.480,737.3,01.18,0.508
2014-09-07 03:35:00,1738E-3,5C000000,-0724,0827,12264,026.4,045.4,0.479,737.4,01.18,0.508
2014-09-07 03:36:00,1787E-3,5C000000,-0724,0827,12182,026.3,045.4,0.479,737.4,01.18,0.508
2014-09-07 03:37:00,1741E-3,5C000000,-0724,0827,12074,026.4,045.4,0.480,737.4,01.18,0.508
2014-09-07 03:38:00,1779E-3,5C000000,-0724,0828,12152,026.4,045.4,0.480,737.6,01.18,0.508
2014-09-07 03:39:00,1747E-3,5C000000,-0724,0828,12341,026.4,045.4,0.479,737.3,01.18,0.508
2014-09-07 03:40:00,1856E-3,5C000000,-0724,0827,12134,026.4,045.4,0.480,737.6,01.18,0.508
2014-09-07 03:41:00,1923E-3,5C000000,-0724,0827,12324,026.3,045.4,0.480,737.4,01.18,0.508
2014-09-07 03:42:00,1871E-3,5C000000,-0724,0828,12430,026.4,045.4,0.480,737.5,01.18,0.508
2014-09-07 03:43:00,1731E-3,5C000000,-0724,0827,12245,026.3,045.4,0.479,737.5,01.18,0.508
2014-09-07 03:44:00,1798E-3,5C000000,-0724,0827,12383,026.3,045.4,0.480,737.5,01.18,0.508
2014-09-07 03:45:00,1858E-3,5C000000,-0724,0827,12219,026.3,045.4,0.480,737.5,01.18,0.508
2014-09-07 03:46:00,1787E-3,5C000000,-0724,0827,12249,026.3,045.4,0.480,737.4,01.18,0.508
2014-09-07 03:47:00,1748E-3,5C000000,-0724,0827,12212,026.3,045.4,0.479,737.5,01.18,0.508
2014-09-07 03:48:00,1741E-3,5C000000,-0724,0827,12354,026.4,045.4,0.480,737.5,01.18,0.508
2014-09-07 03:49:00,1716E-3,5C000000,-0724,0827,12175,026.4,045.4,0.480,737.4,01.18,0.508
2014-09-07 03:50:00,1849E-3,5C000000,-0724,0827,12240,026.4,045.4,0.479,737.5,01.18,0.508
2014-09-07 03:51:00,1805E-3,5C000000,-0724,0827,12279,026.4,045.4,0.480,737.5,01.18,0.508
2014-09-07 03:52:00,1782E-3,5C000000,-0724,0828,12304,026.4,045.4,0.480,737.4,01.18,0.508
2014-09-07 03:53:00,1743E-3,5C000000,-0724,0828,12265,026.4,045.4,0.480,737.4,01.18,0.508
2014-09-07 03:54:00,1788E-3,5C000000,-0724,0828,12265,026.4,045.4,0.479,737.3,01.18,0.508
2014-09-07 03:55:00,1782E-3,5C000000,-0724,0827,12183,026.4,045.4,0.480,737.5,01.18,0.508
2014-09-07 03:56:00,1868E-3,5C000000,-0724,0827,12157,026.4,045.4,0.480,737.5,01.18,0.508
2014-09-07 03:57:00,1866E-3,5C000000,-0724,0828,12202,026.4,045.4,0.479,737.4,01.18,0.508
2014-09-07 03:58:00,1886E-3,5C000000,-0724,0827,12351,026.4,045.4,0.480,737.4,01.18,0.508
2014-09-07 03:59:00,1836E-3,5C000000,-0724,0827,12245,026.4,045.4,0.480,737.4,01.18,0.508
2014-09-07 04:00:00,1779E-3,5C000000,-0724,0827,12166,026.4,045.4,0.480,737.4,01.18,0.508
2014-09-07 04:01:00,1814E-3,5C000000,-0724,0827,12201,026.4,045.4,0.479,737.4,01.18,0.508
2014-09-07 04:02:00,1752E-3,5C000000,-0724,0827,12346,026.4,045.4,0.480,737.5,01.18,0.508
2014-09-07 04:03:00,1801E-3,5C000000,-0724,0827,12198,026.4,045.4,0.480,737.5,01.18,0.508
2014-09-07 04:04:00,1741E-3,5C000000,-0724,0827,12279,026.4,045.4,0.479,737.5,01.18,0.508
2014-09-07 04:05:00,1936E-3,5C000000,-0724,0827,12242,026.4,045.4,0.479,737.4,01.18,0.508
2014-09-07 04:06:00,1875E-3,5C000000,-0724,0827,12274,026.3,045.4,0.480,737.5,01.18,0.508
2014-09-07 04:07:00,1734E-3,5C000000,-0724,0827,12186,026.3,045.4,0.480,737.5,01.18,0.508
2014-09-07 04:08:00,1706E-3,5C000000,-0724,0827,12345,026.3,045.4,0.479,737.5,01.18,0.508
2014-09-07 04:09:00,1688E-3,5C000000,-0724,0828,12187,026.4,045.4,0.479,737.5,01.18,0.508
2014-09-07 04:10:00,1791E-3,5C000000,-0724,0828,12240,026.4,045.4,0.480,737.6,01.18,0.508
2014-09-07 04:11:00,1863E-3,5C000000,-0724,0827,12243,026.4,045.4,0.480,737.6,01.18,0.508
2014-09-07 04:12:00,1759E-3,5C000000,-0724,0828,12230,026.4,045.4,0.479,737.6,01.18,0.508
2014-09-07 04:13:00,1931E-3,5C000000,-0724,0827,12139,026.4,045.4,0.480,737.5,01.18,0.508
2014-09-07 04:14:00,1791E-3,5C000000,-0724,0828,11988,026.4,045.4,0.480,737.4,01.18,0.508
2014-09-07 04:15:00,1696E-3,5C000000,-0724,0827,12115,026.4,045.4,0.480,737.6,01.18,0.508
2014-09-07 04:16:00,1867E-3,5C000000,-0724,0827,12449,026.4,045.4,0.480,737.6,01.18,0.508
2014-09-07 04:17:00,1846E-3,5C000000,-0724,0827,12250,026.4,045.4,0.480,737.5,01.18,0.508
2014-09-07 04:18:00,1665E-3,5C000000,-0724,0827,12254,026.4,045.4,0.480,737.6,01.18,0.508
2014-09-07 04:19:00,1643E-3,5C000000,-0724,0828,12140,026.4,045.4,0.479,737.5,01.18,0.508
2014-09-07 04:20:00,1728E-3,5C000000,-0724,0827,12187,026.4,045.4,0.480,737.5,01.18,0.508